Flag Weather past 2 weeks in Tucson, Arizona, U.S.A.

Now
54 °F

Clear.


Feels Like: 53 °F
Forecast: 51 / 81 °F
Wind: 6 mph from Southeast

Location: Davis-Monthan Air Force Base

Current Time: Nov 28, 2014 at 5:36:36 AM

Latest Report: Nov 28, 2014 at 4:58 AM


Visibility: 10 mi

Pressure: 30.02 "Hg

Humidity: 27%

Dew point: 21 °F

Location of TucsonLocation

Historic Weather in Tucson — Graph

°F

Tucson temperature yesterday

Maximum temperature yesterday: 82 °F (at 2:58 PM)
Minimum temperature yesterday: 43 °F (at 4:58 AM)
Average temperature yesterday: 63 °F

Past Weeks' High & Low Weather Summary

 TemperatureHumidityPressure
High82 °F (Nov 27, 2:58 PM)82% (Nov 15, 5:58 AM)30.40 "Hg (Nov 15, 5:58 AM)
Low35 °F (Nov 24, 6:58 AM)7% (Nov 24, 1:58 PM)29.81 "Hg (Nov 21, 2:58 PM)
Average56 °F32%30.05 "Hg
* Reported Nov 13 3:58 AM — Nov 28 3:58 AM, Tucson, Weather by CustomWeather, © 2014

Note: Actual official high and low records may vary slightly from our data, if they occured in-between our weather recording intervals... More about our weather records

Advertising

Tucson weather history for previous 24 hours

 ConditionsComfort  
Time TempWeatherWind HumidityBarometerVisibility
3:58 AM
Nov 28
55 °FClear.9 mph27%30.02 "Hg10 mi
2:58 AM59 °FClear.14 mph23%30.01 "Hg10 mi
1:58 AM60 °FClear.14 mph22%30.01 "Hg10 mi
12:58 AM59 °FClear.10 mph23%30.02 "Hg10 mi
11:58 PM
Nov 27
60 °FClear.12 mph22%30.04 "Hg10 mi
10:58 PM61 °FClear.14 mph21%30.04 "Hg10 mi
9:58 PM61 °FClear.8 mph21%30.05 "Hg10 mi
8:58 PM61 °FClear.10 mph21%30.06 "Hg10 mi
7:58 PM61 °FClear.8 mph21%30.08 "Hg10 mi
6:58 PM66 °FClear.9 mph18%30.08 "Hg10 mi
5:58 PM72 °FClear.10 mph14%30.07 "Hg10 mi
4:58 PM78 °FSunny.6 mph11%30.04 "Hg10 mi
3:58 PM82 °FSunny.7 mph10%30.03 "Hg10 mi
2:58 PM82 °FSunny.10 mph9%30.04 "Hg10 mi
1:58 PM82 °FSunny.13 mph9%30.05 "Hg10 mi
12:58 PM80 °FSunny.13 mph11%30.06 "Hg10 mi
11:58 AM78 °FSunny.22 mph11%30.10 "Hg10 mi
10:58 AM77 °FSunny.24 mph12%30.13 "Hg10 mi
9:58 AM73 °FSunny.7 mph14%30.16 "Hg10 mi
8:58 AM63 °FSunny.7 mph21%30.18 "Hg10 mi
7:58 AM57 °FSunny.12 mph25%30.18 "Hg10 mi
6:58 AM47 °FClear.1 mph34%30.19 "Hg10 mi
5:58 AM45 °FClear.5 mph35%30.17 "Hg10 mi
Weather by CustomWeather, © 2014

See weather overviewHow to use our weather pages